Location: Canazei
(46.4667°N, 11.7667°E)
Time: 06:56:47
(UTC+00:00)

Cosmos 158 Rocket - Pass Details

Date: 21 April 2021
Orbit: 699 x 792 km, 74.0° (Epoch: 15 May)

Event Time Altitude Azimuth Distance (km) Brightness Sun altitude
Rises 01:05:22 0° 335° (NNW) 3,124 7.6 -26.3°
Reaches altitude 10° 01:07:44 10° 333° (NNW) 2,191 6.7 -26.1°
Enters shadow 01:11:43 54° 305° (NW) 854 4.1 -25.7°
